"Pseudo-MPEC" for TF26H70

Created 2026 Aug 16 10:35:30 UT using Find_Orb

Click here for an explanation of pseudo-MPECs

 
 Astrometry: 
     TF26H70* C2026 08 16.42370320 23 45.615+12 34 21.48   ~8GAZ 19.58GVNEOCPU74
     TF26H70  C2026 08 16.42704420 23 40.474+12 35 12.90   ~8GAZ 19.58GVNEOCPU74

Station data:
(U74) JPL SynTrack Robotic Telescope 2, Auberry  (N37.070341 W119.412800)
   US/California.  Observers N. Saini, C. Zhai, R. Trahan, M. Zhan, M. Shao.
   0.36-m f/2.2 Schmidt.

Orbital elements:  TF26H70
   Perihelion 2026 Oct 26.027419 +/- 68.6 TT =  0:39:29.0 (JD 2461339.527419)
Epoch 2026 Aug 16.0 TT = JDT 2461268.5   Earth MOID: 0.0660      AutoNEOCP
M 283.775574263 +/- 70              (J2000 ecliptic)
n   1.073169018 +/- 0.55            Peri.  139.472075 +/- 80
a   0.944837883 +/- 0.323           Node   317.757806 +/- 56
e   0.53299077 +/- 0.254            Incl.   23.526121 +/- 26
P   0.918/335.449d         H 23.98  G  0.15   U 12.4  SR
q 0.441248007 +/- 0.216    Q 1.448427759 +/- 28.5
From 2 observations 2026 Aug. 16 (4.8 min); mean residual 0".00
Residuals in arcseconds: 
260816 U74  .01+  .00     260816 U74  .01+  .00     

Ephemerides (geocentric):
Date (UTC) HH   RA             Dec           delta  r     elong  mag " sig PA
---- --------  ------------   ------------  ------ ------ -----  --- --------
2026 08 16 11  20 22 58.079   +12 44 13.41  .07569 1.0769 147.0 19.9  596 123
2026 08 16 12  20 21 54.615   +12 55 00.43  .07556 1.0766 146.7 19.9  657 119
2026 08 16 13  20 20 50.846   +13 05 48.63  .07543 1.0762 146.4 19.9  742 117
2026 08 16 14  20 19 46.771   +13 16 37.96  .07530 1.0759 146.1 19.9  843 117
2026 08 16 15  20 18 42.391   +13 27 28.35  .07517 1.0756 145.7 19.9  958 120
2026 08 16 16  20 17 37.707   +13 38 19.76  .07505 1.0752 145.4 19.9 1119 145
2026 08 16 17  20 16 32.720   +13 49 12.13  .07493 1.0749 145.1 19.9 1551   2
2026 08 16 18  20 15 27.430   +14 00 05.40  .07481 1.0746 144.8 19.9 2328   9
2026 08 16 19  20 14 21.839   +14 10 59.52  .07470 1.0742 144.5 19.9 3765  12
2026 08 16 20  20 13 15.947   +14 21 54.41  .07458 1.0739 144.1 19.9 7380  14
2026 08 16 21  20 12 09.756   +14 32 50.03  .07447 1.0736 143.8 19.9 620'  54
2026 08 16 22  20 11 03.267   +14 43 46.30  .07437 1.0732 143.5 19.9  17d  97
2026 08 16 23  20 09 56.481   +14 54 43.18  .07426 1.0729 143.2 19.9  18d 102
2026 08 17 00  20 08 49.399   +15 05 40.59  .07416 1.0725 142.8 19.9  18d  75
2026 08 17 01  20 07 42.022   +15 16 38.47  .07406 1.0722 142.5 19.9  19d  73
2026 08 17 02  20 06 34.353   +15 27 36.76  .07396 1.0719 142.2 19.9  23d  74
2026 08 17 03  20 05 26.392   +15 38 35.40  .07386 1.0715 141.8 19.9  26d  80
2026 08 17 04  20 04 18.140   +15 49 34.31  .07377 1.0712 141.5 19.9  27d  84
2026 08 17 05  20 03 09.600   +16 00 33.43  .07368 1.0709 141.2 20.0  28d  86
2026 08 17 06  20 02 00.774   +16 11 32.70  .07359 1.0705 140.8 20.0  28d  87
2026 08 17 07  20 00 51.662   +16 22 32.04  .07350 1.0702 140.5 20.0  28d  87
2026 08 17 08  19 59 42.267   +16 33 31.39  .07342 1.0699 140.2 20.0  28d  88
2026 08 17 09  19 58 32.591   +16 44 30.68  .07334 1.0695 139.8 20.0  28d  88
2026 08 17 10  19 57 22.635   +16 55 29.85  .07326 1.0692 139.5 20.0  29d  88
2026 08 17 11  19 56 12.402   +17 06 28.81  .07318 1.0689 139.1 20.0  29d  88
2026 08 17 12  19 55 01.894   +17 17 27.50  .07311 1.0685 138.8 20.0  29d 101
2026 08 17 13  19 53 51.113   +17 28 25.85  .07304 1.0682 138.5 20.0  29d 101
2026 08 17 14  19 52 40.060   +17 39 23.78  .07297 1.0678 138.1 20.0  29d 100
2026 08 17 15  19 51 28.740   +17 50 21.23  .07290 1.0675 137.8 20.0  30d 100
2026 08 17 16  19 50 17.153   +18 01 18.13  .07284 1.0672 137.4 20.0  30d 100
2026 08 17 17  19 49 05.302   +18 12 14.40  .07278 1.0668 137.1 20.0  30d 100
2026 08 17 18  19 47 53.191   +18 23 09.97  .07272 1.0665 136.7 20.0  31d 100
2026 08 17 19  19 46 40.821   +18 34 04.76  .07266 1.0662 136.4 20.0  31d 100
2026 08 17 20  19 45 28.195   +18 44 58.71  .07261 1.0658 136.0 20.0  31d 100
2026 08 17 21  19 44 15.316   +18 55 51.73  .07256 1.0655 135.7 20.1  31d 100
2026 08 17 22  19 43 02.187   +19 06 43.77  .07251 1.0651 135.3 20.1  31d 100
2026 08 17 23  19 41 48.811   +19 17 34.73  .07247 1.0648 135.0 20.1  31d 100
2026 08 18 00  19 40 35.191   +19 28 24.56  .07242 1.0645 134.6 20.1  32d 100
2026 08 18 01  19 39 21.330   +19 39 13.16  .07238 1.0641 134.3 20.1  32d 100
2026 08 18 02  19 38 07.230   +19 50 00.49  .07234 1.0638 133.9 20.1  32d 100
2026 08 18 03  19 36 52.896   +20 00 46.45  .07231 1.0634 133.6 20.1  32d 100
2026 08 18 04  19 35 38.330   +20 11 30.97  .07228 1.0631 133.2 20.1  32d 100
2026 08 18 05  19 34 23.536   +20 22 13.98  .07225 1.0628 132.9 20.1  32d 100
2026 08 18 06  19 33 08.518   +20 32 55.42  .07222 1.0624 132.5 20.1  33d 100
2026 08 18 07  19 31 53.278   +20 43 35.19  .07219 1.0621 132.2 20.1  33d 100
2026 08 18 08  19 30 37.821   +20 54 13.24  .07217 1.0617 131.8 20.1  33d 100
2026 08 18 09  19 29 22.149   +21 04 49.49  .07215 1.0614 131.5 20.1  33d 100
2026 08 18 10  19 28 06.268   +21 15 23.86  .07214 1.0611 131.1 20.2  33d  99